Printer-friendly version

IAU Minor Planet Center

Minor Planet Center

(27) Euterpe

Orbital Elements

The following orbital elements are taken from MPC 28564:
   (27) Euterpe
Epoch 2000 Feb. 26.0 TT = JDT 2451600.5                 Williams
M 216.06675              (2000.0)            P               Q
n   0.27419662     Peri.  356.69633     -0.02637443     -0.99927266
a   2.3465401      Node    94.81373     +0.91779531     -0.03512456
e   0.1718796      Incl.    1.58381     +0.39617692     +0.01484668
P   3.59           H    7.0           G   0.15           U   0
From 1098 observations at 52 oppositions, 1853-1996, mean residual 0".70.
An explanation of the orbital elements is available.

These orbital elements are also available in forms suitable for loading into a number of popular planetarium-type software programs.


Ephemeris

The following ephemeris is at intervals of five days. A daily ephemeris covering the same time interval is also available.

Date    TT    R. A. (2000) Decl.     Delta      r     Elong.  Phase     V
 
2000 06 15    23 04.52   -07 23.7    2.184    2.561    99.8    23.0    11.8
2000 06 20    23 07.88   -07 07.1    2.114    2.553   103.7    22.7    11.7
2000 06 25    23 10.78   -06 53.4    2.045    2.546   107.7    22.4    11.7
2000 06 30    23 13.20   -06 42.9    1.977    2.538   111.9    21.8    11.6
2000 07 05    23 15.08   -06 36.0    1.911    2.530   116.2    21.1    11.5
2000 07 10    23 16.40   -06 32.7    1.848    2.522   120.6    20.3    11.4
2000 07 15    23 17.12   -06 33.4    1.787    2.514   125.2    19.3    11.2
2000 07 20    23 17.22   -06 38.1    1.729    2.506   130.0    18.1    11.1
2000 07 25    23 16.68   -06 46.9    1.674    2.497   134.9    16.7    11.0
2000 07 30    23 15.46   -07 00.0    1.623    2.489   140.1    15.2    10.9
2000 08 04    23 13.57   -07 17.1    1.577    2.480   145.4    13.4    10.7
2000 08 09    23 11.04   -07 38.0    1.536    2.471   150.9    11.5    10.6
2000 08 14    23 07.91   -08 02.4    1.500    2.463   156.5     9.4    10.5
2000 08 19    23 04.22   -08 29.6    1.470    2.454   162.3     7.2    10.3
2000 08 24    23 00.08   -08 58.9    1.447    2.445   168.1     4.9    10.2
2000 08 29    22 55.57   -09 29.6    1.429    2.436   173.9     2.5    10.0
2000 09 03    22 50.85   -10 00.7    1.419    2.427   177.5     1.1     9.8
2000 09 08    22 46.05   -10 31.0    1.415    2.418   172.9     3.0    10.0
2000 09 13    22 41.35   -10 59.7    1.417    2.408   167.0     5.4    10.1
2000 09 18    22 36.88   -11 26.0    1.427    2.399   161.0     7.8    10.2
2000 09 23    22 32.78   -11 49.0    1.442    2.390   155.1    10.2    10.3
2000 09 28    22 29.18   -12 08.2    1.463    2.380   149.3    12.4    10.5
2000 10 03    22 26.18   -12 23.2    1.490    2.371   143.6    14.5    10.6
2000 10 08    22 23.87   -12 33.6    1.521    2.361   138.1    16.4    10.7
2000 10 13    22 22.28   -12 39.4    1.557    2.351   132.8    18.2    10.8
2000 10 18    22 21.45   -12 40.6    1.597    2.342   127.6    19.7    10.9
2000 10 23    22 21.37   -12 37.4    1.640    2.332   122.7    21.1    10.9
2000 10 28    22 22.04   -12 29.7    1.685    2.322   117.9    22.2    11.0
2000 11 02    22 23.45   -12 17.8    1.733    2.313   113.3    23.2    11.1
2000 11 07    22 25.55   -12 01.9    1.783    2.303   108.8    24.0    11.2
2000 11 12    22 28.30   -11 42.2    1.834    2.293   104.6    24.7    11.3
2000 11 17    22 31.67   -11 18.8    1.887    2.283   100.4    25.2    11.3
2000 11 22    22 35.60   -10 52.1    1.940    2.273    96.5    25.6    11.4

Back to Bright Minor Planets

Astronomical Headlines Index


Valid HTML 4.01!